sat.trackr.live / text

‹ back to catalog

STARLINK-5664

NORAD 55360 · 2023-013AF

PAYLOAD ACTIVE UNKNOWN

§ Identity

Operator
Country
US
Launch date
2023-01-26
Launch site
AFETR
Launch vehicle
Mass (kg)
RCS (m²)

Purposes: comms

External: N2YO · Heavens-Above · Gunter

§ Orbital elements

Epoch: 2026-09-20T14:24:49.025952Z

Period
94.27 min
Inclination
43.0022°
Eccentricity
0.0000943
Mean motion
15.27578459 rev/d
Perigee alt
482.4 km
Apogee alt
483.7 km
Semi-major
6,861.2 km
B*
5.2782e-5
RAAN
300.6593°
Arg perigee
281.4327°
Mean anomaly
78.6419°
Rev number
20,127

§ Raw data

STARLINK-56641 55360U 23013AF  26263.60056743  .00001191  00000+0  52782-4 0  99972 55360  43.0022 300.6593 0000943 281.4327  78.6419 15.27578459201271

JSON: /api/v1/satellites/55360 · /tle

For live sub-satellite position, see the globe view (requires WebGL).

§ Visibility from observer

Set your observer location to see the next 7 days of passes ≥ 10°. The values pass through the URL so the page stays shareable.

No JS? Fill the form by hand. The geolocation button needs JavaScript.